{"data":{"norad_id":63916,"intl_designator":"2025-095AC","name":"STARLINK-33910","alt_names":[],"object_type":"PAYLOAD","status":"ACTIVE","operator":null,"country":"US","launch_date":"2025-05-10","launch_site_code":"AFETR","launch_vehicle":null,"mission":null,"orbit_class":"UNKNOWN","rcs_meters":null,"size_class":null,"mass_kg":null,"dimensions":null,"purposes":["comms"],"wikipedia_slug":null,"has_3d_model":false,"image_url":null,"decayed_at":null,"tle_current":{"epoch":"2026-05-24T14:44:14.854848Z","epoch_age_seconds":98615,"freshness":"FRESH","line1":"1 63916U 25095AC  26144.61406082  .00008154  00000+0  30539-3 0  9990","line2":"2 63916  42.9953 107.0752 0000625 318.1278  41.9526 15.27591005 59392","mean_motion":15.27591005,"eccentricity":6.25e-5,"inclination_deg":42.9953,"raan_deg":107.0752,"arg_perigee_deg":318.1278,"mean_anomaly_deg":41.9526,"bstar":0.00030539,"rev_number":5939,"period_min":94.266069601529,"perigee_km":482.587321237,"apogee_km":483.44496537991,"semimajor_km":6861.1531433085,"source":"CELESTRAK","updated_at":"2026-05-25T13:38:20.181330Z"}}}